Weather History for Fort Rucker / Ozark, AL

Change the Weather History Date:

Wednesday, March 26, 2014

  Actual Average (KOZR) Record (KOZR)
Temperature  
Mean Temperature 44 °F -  
Max Temperature 57 °F 70 °F 85 °F (2012)
Min Temperature 30 °F 47 °F 31 °F (2013)
Degree Days  
Heating Degree Days 22    
Moisture  
Dew Point 20 °F    
Average Humidity 43    
Maximum Humidity 75    
Minimum Humidity 18    
Precipitation  
Precipitation 0.00 in - - ()
Sea Level Pressure  
Sea Level Pressure 30.26 in    
Wind  
Wind Speed 5 mph (North)    
Max Wind Speed 13 mph    
Max Gust Speed 17 mph    
Visibility 10 miles    
Events      
Averages and records for this station are not official NWS values.
T = Trace of Precipitation, MM = Missing Value Source: NWS Daily Summary

Daily Weather History Graph

Daily Weather History Graph

Search for Another Location

Airport:

Trip Planner

Search our weather history database for the weather conditions in past years. The results will help you decide how hot, cold, wet, or windy it might be!

Date:

Astronomy

Mar. 26, 2014 Rise Set
Actual Time 6:38 AM CDT 6:58 PM CDT
Civil Twilight 6:14 AM CDT 7:22 PM CDT
Nautical Twilight 5:46 AM CDT 7:50 PM CDT
Astronomical Twilight 5:17 AM CDT 8:19 PM CDT
Moon 3:30 AM CDT (3/26) 2:50 PM CDT (3/26)
Length of Visible Light 13h 07m
Length of Day
12h 19m
Waning Crescent, 21% of the Moon is Illuminated
Mar 26
Waning Crescent
Mar 30
New
Apr 7
First Quarter
Apr 15
Full
Apr 22
Last Quarter

Hourly Weather History & Observations

Time (CDT) Temp. Windchill Dew Point Humidity Pressure Visibility Wind Dir Wind Speed Gust Speed Precip Events Conditions
12:53 AM 41.0 °F 36.4 °F 19.9 °F 43% 30.21 in 10.0 mi North 6.9 mph - N/A   Clear
1:53 AM 37.0 °F 33.3 °F 23.0 °F 57% 30.22 in 10.0 mi NNW 4.6 mph - N/A   Clear
2:53 AM 36.0 °F 32.1 °F 23.0 °F 59% 30.23 in 10.0 mi NW 4.6 mph - N/A   Clear
3:53 AM 33.1 °F 27.7 °F 23.0 °F 66% 30.24 in 10.0 mi NNW 5.8 mph - N/A   Clear
4:53 AM 32.0 °F 26.4 °F 23.0 °F 69% 30.25 in 10.0 mi NNW 5.8 mph - N/A   Clear
5:53 AM 33.1 °F 28.7 °F 21.9 °F 64% 30.27 in 10.0 mi North 4.6 mph - N/A   Clear
6:53 AM 30.0 °F 26.5 °F 23.0 °F 75% 30.30 in 10.0 mi North 3.5 mph - N/A   Clear
7:53 AM 37.9 °F 33.5 °F 21.0 °F 51% 30.32 in 10.0 mi NNE 5.8 mph - N/A   Clear
8:53 AM 42.1 °F 35.2 °F 16.0 °F 35% 30.34 in 10.0 mi ENE 12.7 mph - N/A   Clear
9:53 AM 45.0 °F 40.1 °F 15.1 °F 30% 30.34 in 10.0 mi ENE 9.2 mph - N/A   Clear
10:53 AM 48.9 °F - 12.9 °F 24% 30.35 in 10.0 mi North 6.9 mph - N/A   Clear
11:53 AM 51.1 °F - 12.0 °F 21% 30.34 in 10.0 mi NNW 9.2 mph 17.3 mph N/A   Clear
12:53 PM 54.0 °F - 12.9 °F 20% 30.32 in 10.0 mi Calm Calm - N/A   Clear
1:53 PM 55.9 °F - 15.1 °F 20% 30.27 in 10.0 mi Variable 4.6 mph - N/A   Clear
2:53 PM 57.9 °F - 14.0 °F 18% 30.25 in 10.0 mi WNW 8.1 mph - N/A   Clear
3:53 PM 57.9 °F - 14.0 °F 18% 30.24 in 9.0 mi North 5.8 mph - N/A   Clear
4:53 PM 57.0 °F - 14.0 °F 18% 30.23 in 10.0 mi NE 5.8 mph - N/A   Clear
5:53 PM 55.9 °F - 12.9 °F 18% 30.22 in 10.0 mi Calm Calm - N/A   Clear
6:53 PM 54.0 °F - 21.0 °F 28% 30.23 in 10.0 mi East 3.5 mph - N/A   Clear
7:53 PM 48.0 °F - 27.0 °F 44% 30.23 in 10.0 mi Calm Calm - N/A   Clear
8:53 PM 46.9 °F - 28.0 °F 48% 30.24 in 10.0 mi ENE 4.6 mph - N/A   Clear
9:53 PM 42.1 °F - 30.9 °F 65% 30.24 in 10.0 mi Calm Calm - N/A   Clear
10:53 PM 39.9 °F - 30.9 °F 70% 30.24 in 10.0 mi Calm Calm - N/A   Clear
11:53 PM 39.9 °F - 32.0 °F 73% 30.24 in 10.0 mi Calm Calm - N/A   Clear